Погода в Салацгриве

Латвия     57°45′50″N   24°21′58″E
темп.,
°C
ветер,
м/с
пор.,
м/с
влажн.,
%
обл.,
%
осадки,
мм/ч
давл.,
гПа
погр.,
м
31 июля, сб
сб3100:00+18зюз10137919 4.0 9971096
03:00+18з910775 5.3 997977
06:00+18зюз79781 0.4 998776
09:00+18зюз79865 1.4 999687
12:00+19зюз810816 1.6 1001905
15:00+20зюз8117928 3.3 10031078
18:00+20з46715 0.2 1003562
21:00+19ссв22795 0.3 1002108
1 августа, вс
вс100:00+18ююв4786100 0.8 1002174
03:00+19юз811799 2.2 1002650
06:00+18юз9138081 1.7 1001863
09:00+18ююз11148242 3.1 10001006
12:00+19зюз1013807 1.9 10021209
15:00+20зюз912752 2.6 10031204
18:00+20з71170100 0.0 1004956
21:00+19з6107620 0.1 1005869
2 августа, пн
пн200:00+19зюз787470 0.1 1005817
03:00+18юз6770100 0.1 1005841
06:00+18юз6776100 0.0 1004648
09:00+18ююз6783100 1.3 1004605
12:00+19зюз5675100 1.4 1003830
15:00+20з3463100 1.4 1003868
18:00+19зсз44675 0.1 1003735
21:00+18з57675 0.3 10031138
3 августа, вт
вт300:00+18зюз89765 1.0 1003863
03:00+17з68745 2.4 1003932
06:00+17сз66764 0.2 1004818
09:00+17сз68723 0.3 10051077
12:00+17ссз777110 0.3 1008985
15:00+18сз67542 0.4 10091154
18:00+19зсз775287 0.0 10101671
21:00+19зсз675326 0.0 10111224
4 августа, ср
ср400:00+17сз44525 0.0 10121236
03:00+16ссв125580 0.0 1013581
06:00+13вюв4475100 0.0 1014128
09:00+16юв33635 0.0 1014270
12:00+18ююз335718 0.0 1015711
15:00+19зсз225299 0.0 1014618
18:00+20с445589 0.0 1013432
21:00+19всв476264 0.0 1012175